Regional Weather Roundup
Issued by NWS

Home | Current Version | Previous Version | Text Only | Print | Product List | Glossary Off
Versions: 1 2 3 4 5 6 7 8 9 10 11 12 13 14 15 16 17 18 19 20 21 22 23 24 25 26 27 28 29 30 31 32 33 34 35 36 37 38 39 40 41 42 43 44 45 46 47 48 49 50

000
ASUS43 KBIS 052001
RWRND

NORTH DAKOTA REGIONAL WEATHER ROUNDUP
NATIONAL WEATHER SERVICE BISMARCK ND
300 PM CDT TUE MAY 05 2015

NOTE: "FAIR" INDICATES FEW OR NO CLOUDS BELOW 12,000 FEET WITH NO
SIGNIFICANT WEATHER AND/OR OBSTRUCTIONS TO VISIBILITY.


NDZ001>003-009>011-017-052100-
NORTHWEST NORTH DAKOTA

CITY           SKY/WX    TMP DP  RH WIND       PRES   REMARKS
WILLISTON      SUNNY     80  42  25 S18G26    29.81F
MINOT          SUNNY     76  31  19 SE20G31   29.91F
$$

NDZ018>021-031>035-040>046-052100-
SOUTHWEST NORTH DAKOTA

CITY           SKY/WX    TMP DP  RH WIND       PRES   REMARKS
BISMARCK       SUNNY     75  26  16 SE22G35   29.95F
DICKINSON      SUNNY     73  48  41 S31G39    29.87F
GARRISON         N/A     75  31  19 S26G33    29.92F
HETTINGER ARPT PTSUNNY   69  49  48 SE24G33   29.92F
$$

NDZ004>008-012>016-024-026-027-054-052100-
NORTHEAST NORTH DAKOTA

CITY           SKY/WX    TMP DP  RH WIND       PRES   REMARKS
GRAND FORKS    MOSUNNY   77  20  12 S13G26    30.03F
GRND FRKS AFB  MOSUNNY   77  22  13 S17G24    30.04F
DEVILS LAKE    PTSUNNY   72  30  21 SE17      30.01F
$$

NDZ022-023-025-028>030-036>039-047>053-052100-
SOUTHEAST NORTH DAKOTA

CITY           SKY/WX    TMP DP  RH WIND       PRES   REMARKS
FARGO          SUNNY     79  23  12 SE17G35   30.04F
JAMESTOWN      SUNNY     77  24  14 SE20G28   29.99F
$$



USA.gov is the U.S. government's official web portal to all federal, state and local government web resources and services.